Houlton, ME

4:12 AM EDT on July 23, 2017 (GMT -0400)
Houlton International

Weather History for KHUL - November, 2013

Change the Weather History Date:

Monday, November 18, 2013

  Actual Average Record
Temperature  
Mean Temperature 46 °F 32 °F  
Max Temperature 58 °F 40 °F 62 °F (1953)
Min Temperature 33 °F 24 °F 2 °F (1943)
Degree Days  
Heating Degree Days 19 33  
Month to date heating degree days 524 538  
Since 1 July heating degree days 1535 1674  
Cooling Degree Days 0 0  
Month to date cooling degree days 0 0  
Year to date cooling degree days 198 191  
Moisture  
Dew Point 45 °F    
Average Humidity 90    
Maximum Humidity 100    
Minimum Humidity 80    
Precipitation  
Precipitation 0.56 in 0.13 in 0.70 in (1978)
Month to date precipitation 1.84 2.43  
Year to date precipitation 38.00 35.11  
Sea Level Pressure  
Sea Level Pressure 29.52 in    
Wind  
Wind Speed 8 mph (South)    
Max Wind Speed 18 mph    
Max Gust Speed 30 mph    
Visibility 5 miles    
Events Fog , Rain    
T = Trace of Precipitation, MM = Missing Value Source: NWS Daily Summary

Daily Weather History Graph

Daily Weather History Graph

Search for Another Location

Airport or City:

Trip Planner

Search our weather history database for the weather conditions in past years. The results will help you decide how hot, cold, wet, or windy it might be!

Date:

Astronomy

Nov. 18, 2013 Rise Set
Actual Time 6:36 AM EST 3:55 PM EST
Civil Twilight 6:03 AM EST 4:28 PM EST
Nautical Twilight 5:27 AM EST 5:05 PM EST
Astronomical Twilight 4:51 AM EST 5:40 PM EST
Moon 4:54 PM EST (11/18) 7:22 AM EST (11/18)
Length of Visible Light 10h 25m
Length of Day
9h 19m
Full, 99% of the Moon is Illuminated
Nov 18
Full
Nov 25
Last Quarter
Dec 2
New
Dec 9
First Quarter
Dec 17
Full

Hourly Weather History & Observations

Time (EST) Temp. Windchill Dew Point Humidity Pressure Visibility Wind Dir Wind Speed Gust Speed Precip Events Conditions
12:14 AM 42.8 °F 40.1 °F 39.2 °F 87% 30.00 in 9.0 mi SSE 4.6 mph - N/A   Overcast
12:53 AM 44.1 °F 40.1 °F 39.9 °F 85% 29.98 in 9.0 mi Variable 6.9 mph - N/A   Overcast
1:53 AM 44.1 °F 40.8 °F 41.0 °F 89% 29.92 in 7.0 mi SE 5.8 mph - 0.00 in   Overcast
2:20 AM 44.6 °F 40.2 °F 41.0 °F 87% 29.89 in 6.0 mi SE 8.1 mph - 0.01 in   Overcast
2:35 AM 44.6 °F 42.2 °F 42.8 °F 93% 29.88 in 5.0 mi Variable 4.6 mph - 0.01 in   Overcast
2:53 AM 44.1 °F 39.5 °F 42.1 °F 93% 29.88 in 8.0 mi SE 8.1 mph - 0.01 in   Overcast
3:53 AM 46.0 °F 39.6 °F 44.1 °F 93% 29.83 in 5.0 mi SE 15.0 mph 26.5 mph 0.01 in Rain Light Rain
4:53 AM 46.9 °F - 44.1 °F 90% 29.77 in 9.0 mi SE 12.7 mph 28.8 mph 0.00 in   Overcast
5:53 AM 46.9 °F - 45.0 °F 93% 29.72 in 7.0 mi SE 12.7 mph 27.6 mph 0.01 in Rain Light Rain
6:53 AM 48.0 °F - 46.0 °F 93% 29.66 in 5.0 mi SE 12.7 mph 23.0 mph 0.00 in   Overcast
7:53 AM 50.0 °F - 46.9 °F 89% 29.60 in 4.0 mi SE 13.8 mph 24.2 mph N/A   Overcast
8:53 AM 52.0 °F - 50.0 °F 93% 29.52 in 8.0 mi SE 12.7 mph 23.0 mph 0.01 in   Overcast
9:53 AM 53.1 °F - 52.0 °F 96% 29.45 in 2.5 mi SE 13.8 mph 26.5 mph 0.06 in Rain Rain
10:12 AM 53.6 °F - 51.8 °F 94% 29.41 in 2.5 mi SE 10.4 mph 24.2 mph 0.11 in Rain Rain
10:17 AM 53.6 °F - 51.8 °F 94% 29.41 in 1.8 mi SE 15.0 mph 21.9 mph 0.15 in Rain Heavy Rain
10:23 AM 53.6 °F - 53.6 °F 100% 29.41 in 1.2 mi SSE 10.4 mph 24.2 mph 0.20 in Rain Heavy Rain
10:33 AM 55.4 °F - 53.6 °F 94% 29.39 in 1.5 mi SE 13.8 mph 27.6 mph 0.27 in Rain Rain
10:44 AM 55.4 °F - 53.6 °F 94% 29.38 in 1.5 mi SSE 17.3 mph 29.9 mph 0.32 in Rain Heavy Rain
10:53 AM 55.9 °F - 54.0 °F 93% 29.38 in 2.5 mi SSE 10.4 mph 24.2 mph 0.33 in Rain Light Rain
11:01 AM 55.4 °F - 55.4 °F 100% 29.37 in 1.8 mi South 12.7 mph 23.0 mph 0.01 in Rain Light Rain
11:13 AM 55.4 °F - 55.4 °F 100% 29.38 in 2.0 mi South 11.5 mph 20.7 mph 0.03 in Rain Light Rain
11:22 AM 57.2 °F - 55.4 °F 94% 29.37 in 3.0 mi South 13.8 mph 26.5 mph 0.04 in Rain Light Rain
11:40 AM 57.2 °F - 55.4 °F 94% 29.37 in 5.0 mi South 15.0 mph 24.2 mph 0.05 in Rain Light Rain
11:49 AM 57.2 °F - 55.4 °F 94% 29.35 in 2.5 mi South 15.0 mph 26.5 mph 0.07 in Rain Rain
11:53 AM 57.0 °F - 55.0 °F 93% 29.36 in 2.5 mi South 11.5 mph 26.5 mph 0.09 in Rain Rain
12:03 PM 57.2 °F - 55.4 °F 94% 29.35 in 5.0 mi SSW 13.8 mph 19.6 mph 0.01 in Rain Light Rain
12:35 PM 57.2 °F - 53.6 °F 88% 29.36 in 10.0 mi South 15.0 mph 24.2 mph 0.01 in   Overcast
12:53 PM 57.0 °F - 53.1 °F 87% 29.38 in 10.0 mi SSW 13.8 mph 27.6 mph 0.01 in   Overcast
1:20 PM 57.2 °F - 51.8 °F 82% 29.38 in 10.0 mi SW 13.8 mph 20.7 mph N/A   Overcast
1:46 PM 57.2 °F - 51.8 °F 82% 29.39 in 10.0 mi SW 9.2 mph 21.9 mph 0.00 in   Overcast
1:53 PM 57.0 °F - 52.0 °F 83% 29.39 in 10.0 mi SW 10.4 mph 19.6 mph 0.00 in   Overcast
2:53 PM 51.1 °F - 46.9 °F 86% 29.43 in 10.0 mi Calm Calm - 0.03 in   Mostly Cloudy
3:53 PM 50.0 °F - 46.9 °F 89% 29.44 in 10.0 mi SSW 4.6 mph - N/A   Overcast
4:53 PM 48.9 °F - 45.0 °F 86% 29.46 in 10.0 mi South 4.6 mph - N/A   Mostly Cloudy
5:53 PM 46.9 °F - 44.1 °F 90% 29.47 in 10.0 mi Variable 3.5 mph - N/A   Scattered Clouds
6:53 PM 46.0 °F 43.9 °F 44.1 °F 93% 29.50 in 10.0 mi WSW 4.6 mph - N/A   Scattered Clouds
7:26 PM 42.8 °F - 41.0 °F 93% 29.48 in 1.8 mi Calm Calm - N/A   Partly Cloudy
7:28 PM 41.0 °F - 39.2 °F 93% 29.48 in 1.0 mi Calm Calm - N/A   Mist
7:35 PM 42.8 °F - 41.0 °F 93% 29.49 in 0.5 mi Calm Calm - N/A Fog Fog
7:39 PM 42.8 °F - 41.0 °F 93% 29.48 in 1.2 mi Calm Calm - N/A   Partly Cloudy
7:42 PM 41.0 °F - 39.2 °F 93% 29.48 in 2.5 mi Calm Calm - N/A   Partly Cloudy
7:46 PM 37.4 °F - 37.4 °F 100% 29.49 in 1.2 mi Calm Calm - N/A   Partly Cloudy
7:53 PM 42.1 °F - 39.9 °F 92% 29.50 in 1.2 mi Calm Calm - N/A   Scattered Clouds
8:00 PM 37.4 °F - 35.6 °F 93% 29.49 in 1.5 mi Calm Calm - N/A   Scattered Clouds
8:08 PM 37.4 °F - 35.6 °F 93% 29.49 in 1.0 mi Calm Calm - N/A   Scattered Clouds
8:15 PM 37.4 °F - 37.4 °F 100% 29.49 in 2.0 mi Calm Calm - N/A   Scattered Clouds
8:23 PM 35.6 °F - 35.6 °F 100% 29.48 in 1.2 mi Calm Calm - N/A   Scattered Clouds
8:36 PM 35.6 °F - 35.6 °F 100% 29.48 in 2.0 mi Calm Calm - N/A   Partly Cloudy
8:44 PM 37.4 °F 34.9 °F 35.6 °F 93% 29.48 in 8.0 mi South 3.5 mph - N/A   Partly Cloudy
8:53 PM 35.1 °F 32.2 °F 34.0 °F 96% 29.49 in 10.0 mi SSW 3.5 mph - N/A   Scattered Clouds
9:11 PM 35.6 °F - 35.6 °F 100% 29.47 in 1.2 mi Calm Calm - N/A   Mostly Cloudy
9:21 PM 37.4 °F 34.9 °F 35.6 °F 93% 29.47 in 2.5 mi South 3.5 mph - N/A   Mostly Cloudy
9:28 PM 37.4 °F 34.9 °F 37.4 °F 100% 29.47 in 10.0 mi South 3.5 mph - N/A   Mostly Cloudy
9:53 PM 36.0 °F 32.1 °F 35.1 °F 97% 29.48 in 10.0 mi South 4.6 mph - N/A   Partly Cloudy
10:53 PM 35.1 °F 31.0 °F 34.0 °F 96% 29.48 in 10.0 mi South 4.6 mph - N/A   Clear
11:53 PM 39.0 °F 34.8 °F 36.0 °F 89% 29.49 in 10.0 mi South 5.8 mph - N/A   Mostly Cloudy